User: anonymous   Login
Location: NJAA Observatory
(40.6819°N, 74.8979°W)
Time: 18:57:41
(UTC-05:00)
Language:

Cosmos 1328 Rocket - Orbit

View from above orbital plane
View from above orbital plane
View from above satellite
View from above satellite

Ground track
Ground track

The orbit data is extracted from the following two-line orbital elements,

1 12988U 81117B   17054.88032543 +.00000120 +00000-0 +11380-4 0  9996
2 12988 082.5267 179.6279 0017181 218.1803 259.9317 14.84636751881954
Epoch (UTC): 23 February 2017 21:07:40
Eccentricity: 0.0017181
inclination: 82.5267°
perigee height: 603 km
apogee height: 627 km
right ascension of ascending node: 179.6279°
argument of perigee: 218.1803°
revolutions per day: 14.84636751
mean anomaly at epoch: 259.9317°
orbit number at epoch: 88195

The dashed part of the orbit path shows where the satellite is in the earth's shadow,  

DLR